EW0734 Weather Reports


time (UTC)temp
C
wind
direction
speed
KPH
gust
KPH
rain 1hr
cm
rain 24hr
cm
rain mn
cm
humidity
%
barometer
mb
20260504223105 23 0.0 6.4 0.00 0.00 0.00 39 1008.7
20260504222046 23 0.0 3.2 0.00 0.00 0.00 38 1008.8
20260504221024 24 0.0 4.8 0.00 0.00 0.00 38 1008.8
20260504220024 24 90 1.6 9.7 0.00 0.00 0.00 37 1008.8
20260504215025 24 90 1.6 9.7 0.00 0.00 0.00 37 1008.8
20260504214024 25 45 1.6 8.0 0.00 0.00 0.00 36 1008.8
20260504213024 25 90 3.2 11.3 0.00 0.00 0.00 36 1008.9
20260504212025 25 0.0 4.8 0.00 0.00 0.00 36 1008.8
20260504211025 25 113 1.6 12.9 0.00 0.00 0.00 38 1008.9
20260504210025 24 90 1.6 8.0 0.00 0.00 0.00 35 1008.8
20260504205025 24 68 1.6 4.8 0.00 0.00 0.00 36 1008.9
20260504204024 25 90 1.6 6.4 0.00 0.00 0.00 35 1009.0
20260504203045 25 0.0 6.4 0.00 0.00 0.00 36 1009.1
20260504202025 25 113 1.6 4.8 0.00 0.00 0.00 35 1009.2
20260504201050 25 90 1.6 9.7 0.00 0.00 0.00 35 1009.4
20260504200024 25 90 1.6 4.8 0.00 0.00 0.00 35 1009.5
20260504195025 25 0.0 4.8 0.00 0.00 0.00 35 1009.4
20260504194025 26 113 1.6 6.4 0.00 0.00 0.00 33 1009.5
20260504193024 26 90 1.6 8.0 0.00 0.00 0.00 33 1009.5
20260504192024 26 90 1.6 9.7 0.00 0.00 0.00 31 1009.6
20260504191025 26 90 1.6 4.8 0.00 0.00 0.00 32 1009.8
20260504190024 26 90 1.6 14.5 0.00 0.00 0.00 32 1009.9
20260504185025 26 0.0 3.2 0.00 0.00 0.00 32 1010.1
20260504184024 26 203 1.6 3.2 0.00 0.00 0.00 34 1010.3
20260504183025 26 203 1.6 12.9 0.00 0.00 0.00 32 1010.4
20260504182025 26 203 1.6 6.4 0.00 0.00 0.00 32 1010.6
20260504181024 26 203 1.6 6.4 0.00 0.00 0.00 31 1010.9
20260504180024 26 203 1.6 4.8 0.00 0.00 0.00 33 1011.0
20260504175024 26 203 1.6 6.4 0.00 0.00 0.00 33 1011.1
20260504174025 25 0.0 4.8 0.00 0.00 0.00 33 1011.1
20260504173025 25 203 1.6 8.0 0.00 0.00 0.00 30 1011.3
20260504172024 25 0.0 4.8 0.00 0.00 0.00 35 1011.5
20260504171044 25 0.0 3.2 0.00 0.00 0.00 37 1011.6
20260504151024 22 0.0 4.8 0.00 0.00 0.00 39 1012.9
20260504141044 19 0.0 1.6 0.00 0.00 0.00 46 1013.2
20260504110525 -17 0.0 0.0 0.00 0.00 0.00
20260504110124 -17 0.0 0.0 0.00 0.00 0.00
20260504100525 -17 0.0 0.0 0.00 0.00 0.00
20260504081525 8 0.0 0.0 0.00 0.00 0.00 73 1014.5
20260504080525 8 0.0 0.0 0.00 0.00 0.00 72 1014.4
20260504050525 7 0.0 0.0 0.00 0.00 0.00 78 1014.5
20260504045525 7 0.0 0.0 0.00 0.00 0.00 78 1014.4
20260504044606 7 0.0 0.0 0.00 0.00 0.00 78 1014.3
20260504043525 7 0.0 0.0 0.00 0.00 0.00 79 1014.3
20260504042525 7 0.0 0.0 0.00 0.00 0.00 79 1014.2
20260504041525 6 0.0 0.0 0.00 0.00 0.00 79 1014.3
20260504040534 6 0.0 0.0 0.00 0.00 0.00 79 1014.3
20260504035525 6 0.0 0.0 0.00 0.00 0.00 80 1014.4
20260504034545 6 0.0 0.0 0.00 0.00 0.00 79 1014.3
20260504033525 6 0.0 0.0 0.00 0.00 0.00 79 1014.3
20260504032525 6 0.0 0.0 0.00 0.00 0.00 79 1014.3
20260504031530 6 0.0 0.0 0.00 0.00 0.00 78 1014.4
20260504030525 6 0.0 0.0 0.00 0.00 0.00 77 1014.4
20260504025525 6 0.0 0.0 0.00 0.00 0.00 76 1014.3
20260504024526 6 0.0 0.0 0.00 0.00 0.00 75 1014.2
20260504023526 6 0.0 0.0 0.00 0.00 0.00 74 1014.3
20260504022526 7 0.0 0.0 0.00 0.00 0.00 73 1014.3
20260504021525 7 0.0 0.0 0.00 0.00 0.00 72 1014.2
20260504020525 7 0.0 0.0 0.00 0.00 0.00 71 1014.1
20260504015525 7 0.0 0.0 0.00 0.00 0.00 69 1014.0
20260504014525 7 0.0 0.0 0.00 0.00 0.00 68 1014.1
20260504013525 8 0.0 0.0 0.00 0.00 0.00 66 1014.1
20260504012545 8 0.0 0.0 0.00 0.00 0.00 64 1013.9
20260504011525 8 0.0 0.0 0.00 0.00 0.00 64 1013.7
20260504010524 9 0.0 0.0 0.00 0.00 0.00 63 1013.7
20260504005525 10 0.0 0.0 0.00 0.00 0.00 60 1013.7
20260504004524 10 0.0 0.0 0.00 0.00 0.00 59 1013.6
20260504003545 10 0.0 0.0 0.00 0.00 0.00 57 1013.5
20260504002525 11 0.0 0.0 0.00 0.00 0.00 56 1013.4
20260504001525 11 0.0 0.0 0.00 0.00 0.00 55 1013.4
20260504000525 12 0.0 0.0 0.00 0.00 0.00 53 1013.4
20260503235525 13 0.0 0.0 0.00 0.00 0.00 51 1013.2
20260503234525 13 0.0 0.0 0.00 0.00 0.00 49 1013.1
20260503233525 14 0.0 0.0 0.00 0.00 0.00 46 1013.0
20260503232545 15 0.0 0.0 0.00 0.00 0.00 42 1013.0
20260503231525 15 0.0 0.0 0.00 0.00 0.00 39 1012.9
20260503230545 15 0.0 0.0 0.00 0.00 0.00 35 1012.9
20260503225544 15 0.0 0.0 0.00 0.00 0.00 36 1013.0
20260503224524 16 0.0 0.0 0.00 0.00 0.00 35 1013.0
20260503223525 16 0.0 1.6 0.00 0.00 0.00 34 1013.2